Location: Innsbruck
(47.2657°N, 11.3914°E)
Time: 13:24:21
(UTC+02:00)

N. Korean satellite - Visible Passes

Search period start: 18 September 2021 00:00
Search period end: 28 September 2021 00:00
Orbit: 448 x 499 km, 97.3° (Epoch: 18 September)

Date Brightness Start Highest point End Pass type
(mag) Time Alt. Az. Time Alt. Az. Time Alt. Az.
18 Sep 9.6 05:40:55 10° NE 05:43:14 17° E 05:45:35 10° SE visible
20 Sep 7.8 06:17:48 10° NNE 06:21:11 45° E 06:24:36 10° S visible
21 Sep 9.3 05:50:32 10° NE 05:53:19 22° E 05:56:07 10° SSE visible
22 Sep 10.1 05:24:28 10° ENE 05:25:20 11° E 05:26:12 10° ESE visible
23 Sep 7.2 06:27:39 10° NNE 06:31:10 62° E 06:34:43 10° S visible
24 Sep 8.8 06:00:13 10° NE 06:03:19 28° E 06:06:27 10° SSE visible
25 Sep 9.8 05:33:24 10° ENE 05:35:21 14° E 05:37:20 10° SE visible
27 Sep 8.3 06:09:54 10° NNE 06:13:15 37° E 06:16:37 10° SSE visible
